Qianfan Jigui 06-13

operational
NORAD ID: 62797 Int'l Des: 2025-016 Owner: YUANX Country: CN Constellation: qianfan
LEOCIRCULARPOLAR

关于 Qianfan Jigui 06-13

正在加载描述...

实时位置

正在加载3D地球...

即将过境

高度历史

Altitude vs Time

uPlot chart will show altitude changes over time

两行轨道根数

1 62797U 25016N 25341.28280789 .00000188 00000-0 27317-3 0 9994
2 62797 88.9769 103.6176 0014713 7.9039 352.2341 13.50979360 46528
Epoch: Dec 7, 2025 • Age: 17 hours

当前状态

高度 1081.1 km
速度 7.31 km/s
星下点 16.06°N, 147.64°W
发射日期 Jan 23, 2025
运行时间 0.8 years
类型 internet

技术详情

分类 Payload
质量 267.00 kg
干质量 267.00 kg
总质量 267.00 kg
长度 0.30 m
直径 3.00 m
跨度 10.00 m
形状 Box+pan
制造商 SECM
平台类型 Qianfan
阶段状态 In Orbit
所有者/国家 YUANX/CN

大型星座

Loading constellations...